Location: Betzi
(47.2343°N, 9.5260°E)
Time: 23:46:27
(UTC+00:00)

SME Rocket - Pass Details

Date: 27 May 2022
Orbit: 550 x 2650 km, 99.9° (Epoch: 26 June)

Event Time Altitude Azimuth Distance (km) Brightness Sun altitude
Exits shadow 01:03:31 36° 200° (SSW) 1,001 3.6 -17.6°
Maximum altitude 01:04:57 55° 259° (W) 799 3.4 -17.5°
Drops below altitude 10° 01:10:00 10° 338° (NNW) 2,482 6.7 -17.1°
Sets 01:12:53 0° 342° (NNW) 3,694 7.7 -16.9°
